Regional Weather Roundup
Issued by NWS

Home | Current Version | Previous Version | Text Only | Print | Product List | Glossary On
Versions: 1 2 3 4 5 6 7 8 9 10 11 12 13 14 15 16 17 18 19 20 21 22 23 24 25 26 27 28 29 30 31 32 33 34 35 36 37 38 39 40 41 42 43 44 45 46 47 48 49 50
000
ASUS44 KMEG 011800
RWRTN
TENNESSEE HOURLY STATE WEATHER ROUNDUP
NATIONAL WEATHER SERVICE MEMPHIS TN
100 PM CDT SUN MAY 01 2016

TNZ002-004-019-021-049-052-054-088>092-011900-
WEST TENNESSEE

CITY           SKY/WX    TMP DP  RH WIND       PRES   REMARKS
MEMPHIS INTL   PTSUNNY   83  70  64 S8        29.93F
NWS MEMPHIS      N/A     81 N/A N/A MISG        N/A
JACKSON        PTSUNNY   82  67  60 SW8       29.94S
DYERSBURG      PTSUNNY   79  68  69 NW10        N/A
UNION CITY     PTSUNNY   79  68  69 SW6       29.91F
LEXINGTON      MOSUNNY   79  66  65 VRB6      29.94F
$$

TNZ008-025-027-028-033-062-065-066-011900-
NORTH MIDDLE TENNESSEE

CITY           SKY/WX    TMP DP  RH WIND       PRES   REMARKS
NASHVILLE      PTSUNNY   79  63  57 S13G18    29.96F
CLARKSVILLE    PTSUNNY   77  66  68 S10       29.93F
COOKEVILLE     PTSUNNY   79  66  65 W7        29.97F
CROSSVILLE     PTSUNNY   75  61  61 CALM      30.02S
$$

TNZ061-075-076-078-094-096-097-011900-
SOUTH MIDDLE TENNESSEE

CITY           SKY/WX    TMP DP  RH WIND       PRES   REMARKS
TULLAHOMA      PTSUNNY   75  66  73 SW10      30.01S
WINCHESTER     PTSUNNY   79  64  61 SW13      30.01R
MCMINNVILLE    MOSUNNY   79  64  61 SW10      29.99F
COLUMBIA       PTSUNNY   79  73  83 S9        29.95F
SHELBYVILLE    PTSUNNY   79  66  65 SW10      30.00R
$$

TNZ017-018-042-046-047-011900-
NORTHEAST TENNESSEE

CITY           SKY/WX    TMP DP  RH WIND       PRES   REMARKS
TRI CITIES     PTSUNNY   73  64  73 VRB5      30.03F
$$

TNZ012-013-036-069-073-074-011900-
CENTRAL EAST TENNESSEE

CITY           SKY/WX    TMP DP  RH WIND       PRES   REMARKS
KNOXVILLE      PTSUNNY   78  64  61 SW15      29.98F
OAK RIDGE      PTSUNNY   78  63  59 S8        29.99F
GATLINBURG     PTCLDY    79  64  61 W8        29.98F
$$

TNZ083-085-099-011900-
SOUTHEAST TENNESSEE

CITY           SKY/WX    TMP DP  RH WIND       PRES   REMARKS
CHATTANOOGA    CLOUDY    80  63  55 SW12      29.99F
$$

SKY/WX REPORTED AS FAIR MEANS FEW OR NO CLOUDS BELOW
12 THOUSAND FEET.





USA.gov is the U.S. government's official web portal to all federal, state and local government web resources and services.